SCP
0 0 0 0 0 0 0 0 0 0 0 0 0 0 0 0 0 0 0 0 0 0 0 0 0 0 0 0 0 0 0 0 0 0 0 0 0 0 0 0 0 0 0 0 0 0 0 0 0 0 0 0 0 0
0 0 0 0 0 0 0 0 0 0 0 0 0 0 0 0 0 0 0 0 0 0 0 0 0 0 0 0 0 0 0 0 0 0 0 0 0 0 0 0 0 0 0 0 0 0 0 0 0 0 0 0 0 0
0 0 0 0 0 0 0 0 0 0 0 0 0 0 0 0 0 0 0 0 0 0 0 0 0 0 0 0 0 0 0 0 0 0 0 0 0 0 0 0 0 0 0 0 0 0 0 0 0 0 0 0 0 0
0 0 0 0 0 0 0 0 0 0 0 0 0 0 0 0 0 0 0 0 0 0 0 0 0 0 0 0 0 0 0 0 0 0 0 0 0 0 0 0 0 0 0 0 0 0 0 0 0 0 0 0 0 0
0 0 0 0 0 0 0 0 0 0 0 0 0 0 0 0 0 0 0 0 0 0 0 0 0 0 0 0 0 0 0 0 0 0 0 0 0 0 0 0 0 0 0 0 0 0 0 0 0 0 0 0 0 0
0 0 0 0 0 0 0 0 0 0 0 0 0 0 0 0 0 0 0 0 0 0 0 0 0 0 0 0 0 0 0 0 0 0 0 0 0 0 0 0 0 0 0 0 0 0 0 0 0 0 0 0 0 0
0 0 0 0 0 0 0 0 0 0 0 0 0 0 0 0 0 0 0 0 0 0 0 0 0 0 0 0 0 0 0 0 0 0 0 0 0 0 0 0 0 0 0 0 0 0 0 0 0 0 0 0 0 0
0 0 0 0 0 0 0 0 0 0 0 0 0 0 0 0 0 0 0 0 0 0 0 0 0 0 0 0 0 0 0 0 0 0 0 0 0 0 0 0 0 0 0 0 0 0 0 0 0 0 0 0 0 0
0 0 0 0 0 0 0 0 0 0 0 0 0 0 0 0 0 0 0 0 0 0 0 0 0 0 0 0 0 0 0 0 0 0 0 0 0 0 0 0 0 0 0 0 0 0 0 0 0 0 0 0 0 0
0 0 0 0 0 0 0 0 0 -0 -0 0 0 0 0 0 0 0 0 0 0 0 0 0 0 0 0 0 0 0 0 0 0 0 0 0 0 0 0 0 0 0 0 0 0 0 0 0 0 0 0 0 0 0
0 0 0 0 -0 -0 -0 -0 0 0 0 0 0 0 0 0 0 0 0 0 0 0 0 0 0 0 0 0 0 0 0 0 0 0 0 0 0 0 0 0 0 0 0 0 0 0 0 0 0 0 0 0 0 0
0 -0 -0 -0 -0 -0 -0 0 0 0 0 0 0 0 0 0 0 0 0 0 0 0 0 0 0 0 0 0 0 0 0 0 0 0 0 0 0 0 0 0 0 0 0 0 0 0 0 0 0 0 0 0 0 0
-0 -0 -0 -0 -0 -0 -0 0 0 0 0 0 0 0 0 0 0 0 0 0 0 0 0 0 0 0 0 0 0 0 0 0 0 0 0 0 0 0 0 0 0 0 0 0 0 0 0 0 0 0 0 0 0 0
-0 -0 -0 -0 -0 0 0 0 0 0 0 0 0 0 0 0 0 0 0 0 0 0 0 0 0 0 0 0 0 0 0 0 0 0 0 0 0 0 0 0 0 0 0 0 0 0 0 0 0 0 0 0 0 0
-0 -0 0 0 0 0 0 0 0 0 0 0 0 0 0 0 0 0 0 0 0 0 0 0 0 0 0 0 0 0 0 0 0 0 0 0 0 0 0 0 0 0 0 0 0 0 0 0 0 0 0 0 0 0
-0 -0 0 0 0 0 0 0 0 0 0 0 0 0 0 0 0 0 0 0 0 0 0 0 0 0 0 0 0 0 0 0 0 0 0 0 0 0 0 0 0 0 0 0 0 0 0 0 0 0 0 0 0 0
0 0 0 0 0 0 0 0 0 0 0 0 0 0 0 0 0 0 0 0 0 0 0 0 0 0 0 0 0 0 0 0 0 0 0 0 0 0 0 0 0 0 0 0 0 0 0 0 0 0 0 0 0 0
0 0 0 0 0 0 0 0 0 0 0 0 0 0 0 0 0 0 0 0 0 0 0 0 0 0 0 0 0 0 0 0 0 0 0 0 0 0 0 0 0 0 0 0 0 0 0 0 0 0 0 0 0 0
0 0 0 0 0 0 0 0 0 0 0 0 0 0 0 0 0 0 0 0 0 0 0 0 0 0 0 0 0 0 0 0 0 0 0 0 0 0 0 0 0 0 0 0 0 0 0 0 0 0 0 0 0 0
0 0 0 0 0 0 0 0 0 0 0 0 0 0 0 0 0 0 0 0 0 0 0 0 0 0 0 0 0 0 0 0 0 0 0 0 0 0 0 0 0 0 0 0 0 0 0 0 0 0 0 0 0 0
0 0 0 0 0 0 0 0 0 0 0 0 0 0 0 0 0 0 0 0 0 0 0 0 0 0 0 0 0 0 0 0 0 0 0 0 0 0 0 0 0 0 0 0 0 0 0 0 0 0 0 0 0 0
0 0 0 0 0 0 0 0 0 0 0 0 0 0 0 0 0 0 0 0 0 0 0 0 0 0 0 0 0 0 0 0 0 0 0 0 0 0 0 0 0 0 0 0 0 0 0 0 0 0 0 0 0 0
0 0 0 0 0 0 0 0 0 0 0 0 0 0 0 0 0 0 0 0 0 0 0 0 0 0 0 0 0 0 0 0 0 0 0 0 0 0 0 0 0 0 0 0 0 0 0 0 0 0 0 0 0 0
0 0 0 0 0 0 0 0 0 0 0 0 0 0 0 0 0 0 0 0 0 0 0 0 0 0 0 0 0 0 0 0 0 0 0 0 0 0 0 0 0 0 0 0 0 0 0 0 0 0 0 0 0 0
0 0 0 0 0 0 0 0 0 0 0 0 0 0 0 0 0 0 0 0 0 0 0 0 0 0 0 0 0 0 0 0 0 0 0 0 0 0 0 0 0 0 0 0 0 0 0 0 0 0 0 0 0 -0
0 0 0 0 0 0 0 0 0 0 0 0 0 0 0 0 0 0 0 0 0 0 0 0 0 0 0 0 0 0 0 0 0 0 0 0 0 0 0 0 0 0 0 0 0 0 0 0 0 0 0 0 0 0
0 0 0 0 0 0 0 0 0 0 0 0 0 0 0 0 0 0 0 0 0 0 0 0 0 0 0 0 0 0 0 0 0 0 0 0 0 0 0 0 0 0 0 0 0 0 0 0 0 0 0 0 0 0
0 0 0 0 0 0 0 0 0 0 0 0 0 0 0 0 0 0 0 0 0 0 0 0 0 0 0 0 0 0 0 0 0 0 0 0 0 0 0 0 0 0 0 0 0 0 0 0 0 0 0 0 0 0
0 0 0 0 0 0 0 0 0 0 0 0 0 0 0 0 0 0 0 0 0 0 0 0 0 0 0 0 0 0 0 0 0 0 0 0 0 0 0 0 0 0 0 0 0 0 0 0 0 0 0 0 0 0
0 0 0 0 0 0 0 0 0 0 0 0 0 0 0 0 0 0 0 0 0 0 0 0 0 0 0 0 0 0 0 0 0 0 0 0 0 0 0 0 0 0 0 0 0 0 0 0 0 0 0 0 0 0
0 0 0 0 0 0 0 0 0 0 0 0 0 0 0 0 0 0 0 0 0 0 0 0 0 0 0 0 0 0 0 0 0 0 0 0 0 0 0 0 0 0 0 0 0 0 0 0 0 0 0 0 0 0
0 0 0 0 0 0 0 0 0 0 0 0 0 0 0 0 0 0 0 0 0 0 0 0 0 0 0 0 0 0 0 0 0 0 0 0 0 0 0 0 0 0 0 0 0 0 0 0 0 0 0 0 0 0
0 0 0 0 0 0 0 0 0 0 0 0 0 -0 -0 -0 -0 -0 0 0 0 0 0 0 0 0 0 0 0 0 0 0 0 0 0 0 0 0 0 0 0 0 0 0 0 0 0 0 0 0 0 0 0 0
Wind_Speed_500mb
140 146 151 153 126 126 115 113 118 113 104 102 101 100 109 60 48 47 36 25 23 18 32 26 27 29 39 40 11 29 17 4 7 6 6 7 5 11 8 13 12 12 11 6 4 4 12 1 12 5 7 34 33 34
150 151 153 126 128 128 112 115 117 112 98 97 98 99 105 66 56 43 34 26 22 24 29 42 46 38 30 21 38 39 5 14 16 6 3 5 3 4 9 6 9 7 12 10 13 10 13 6 44 32 29 31 33 31
149 148 143 144 128 116 116 118 114 101 97 97 97 97 102 71 57 42 40 30 33 49 31 31 39 36 27 26 19 21 13 14 15 7 9 5 4 6 5 6 9 7 36 7 10 6 8 43 34 30 22 23 24 21
153 150 144 131 118 106 117 114 105 96 93 93 92 92 99 82 57 35 39 33 26 26 14 22 18 28 30 33 28 24 29 22 29 21 10 4 5 4 1 2 6 2 17 12 7 9 43 37 29 19 18 16 16 18
149 139 132 119 113 106 118 115 101 91 92 92 88 84 81 68 56 43 39 32 34 7 14 18 28 30 21 19 20 20 26 30 23 9 6 2 6 7 5 6 4 4 4 6 5 16 28 22 19 16 15 15 13 20
150 131 130 119 118 111 104 120 98 90 89 86 84 82 72 61 52 47 24 24 21 32 18 5 18 17 22 30 32 31 26 25 12 8 6 8 6 7 5 3 22 37 34 22 14 20 21 13 8 14 15 18 21 20
138 131 127 125 118 107 104 101 95 94 92 89 87 77 68 61 56 22 17 36 32 19 16 12 7 14 20 34 34 31 23 15 9 6 5 9 5 7 4 3 26 31 27 25 21 17 11 9 9 11 17 20 25 23
136 135 128 123 115 105 101 98 97 96 95 94 85 73 62 53 39 26 34 51 34 22 16 10 5 10 18 9 9 7 9 10 9 5 3 9 9 5 1 7 32 25 25 26 17 17 13 10 11 14 18 22 26 28
132 126 121 120 108 104 102 102 100 99 99 93 81 67 59 47 29 36 51 37 23 12 16 11 11 7 22 13 11 7 6 6 5 3 1 6 3 2 8 24 30 19 17 18 16 13 9 12 17 20 26 30 33 34
123 120 122 113 110 108 106 106 107 107 101 92 82 31 17 32 53 42 26 13 8 7 7 10 16 6 24 15 7 9 5 6 3 7 8 5 1 21 31 29 29 23 19 12 12 11 12 17 21 26 28 31 32 35
129 123 118 114 112 111 112 113 111 109 98 72 19 13 64 61 36 7 9 6 7 5 8 11 28 28 24 9 7 11 9 8 5 7 8 4 4 21 26 31 24 18 13 9 8 10 14 19 24 30 36 33 33 35
121 117 116 114 114 115 116 117 112 91 55 40 42 74 51 15 7 8 5 6 6 10 11 23 42 28 17 12 9 8 5 3 5 22 6 4 8 25 26 25 18 11 6 4 7 13 22 31 35 35 37 46 54 60
120 119 117 117 115 112 108 103 68 57 65 92 43 12 11 7 6 11 12 5 7 19 30 46 26 12 11 10 9 6 6 6 29 5 6 4 29 29 26 21 13 6 6 14 24 30 30 31 39 49 55 54 58 65
118 116 115 114 113 117 91 65 73 77 50 11 12 9 6 5 6 5 9 10 20 45 59 47 19 9 9 7 8 8 7 8 3 5 4 13 32 29 20 11 9 15 21 20 26 36 39 44 49 52 58 66 70 70
118 116 116 118 109 82 87 86 65 58 15 12 9 6 6 20 31 39 49 47 55 63 52 36 19 12 8 6 3 7 5 5 4 4 6 31 25 16 13 11 10 16 23 32 38 41 46 49 54 60 59 58 59 60
119 120 121 101 81 94 76 55 45 30 13 11 13 15 30 35 33 46 51 52 54 57 25 12 8 7 4 7 5 7 9 4 6 14 38 24 19 15 6 8 15 22 32 33 38 46 48 54 57 58 60 63 61 60
118 114 103 88 89 71 45 44 22 18 11 10 10 24 39 38 29 40 44 37 45 23 6 10 7 5 13 4 5 6 5 10 47 37 29 21 13 6 6 14 25 30 34 39 44 49 56 54 55 64 66 63 63 55
119 110 86 83 83 49 45 30 18 17 17 19 20 39 40 47 46 39 29 25 22 9 9 4 9 5 6 7 6 16 42 39 34 27 20 13 5 4 17 24 30 34 41 46 48 50 55 58 59 64 64 65 63 62
113 96 73 66 59 31 17 19 16 13 22 27 39 45 45 42 37 34 31 27 25 24 11 7 7 5 4 15 49 43 39 34 27 18 12 4 3 11 17 30 35 40 42 47 57 53 55 56 60 62 61 61 64 66
84 78 69 51 40 26 15 13 16 16 9 21 39 31 26 26 32 32 27 23 21 11 10 8 8 25 45 44 44 40 32 23 20 16 7 2 9 21 30 35 39 43 51 54 57 56 60 64 65 62 63 64 66 66
77 61 52 38 43 29 16 11 14 17 18 16 40 37 25 27 26 27 23 13 11 6 9 20 45 42 38 39 32 25 21 17 10 5 7 17 24 29 35 41 46 51 53 57 59 60 60 60 61 62 67 69 71 61
65 58 55 39 21 16 18 18 21 20 13 28 26 18 13 15 14 8 11 10 8 15 20 35 33 33 33 29 24 19 14 9 8 13 17 22 29 37 41 47 50 53 55 55 51 58 59 61 62 71 73 71 63 53
61 55 34 20 16 13 8 15 9 9 11 17 24 9 8 8 8 10 6 6 14 22 26 28 26 19 21 16 9 2 3 11 15 17 22 30 38 44 48 49 50 57 55 53 56 55 57 62 69 74 69 63 57 52
33 16 13 10 12 9 8 5 9 11 19 12 7 8 7 7 14 3 4 7 22 28 26 24 22 20 13 7 6 6 8 14 23 29 31 33 41 50 48 48 56 53 50 50 49 52 61 66 72 71 62 63 62 66
17 10 11 10 9 9 7 6 6 6 5 11 7 5 5 9 4 3 4 13 23 22 25 23 18 15 12 9 8 12 17 19 20 27 38 49 54 54 53 57 51 46 43 47 53 61 69 74 73 61 55 52 34 50
11 6 5 7 12 9 7 7 7 7 7 6 5 12 10 6 5 5 8 18 20 25 27 23 20 18 17 16 17 19 23 30 40 48 49 51 48 50 43 38 44 48 49 55 65 71 71 63 52 50 52 50 46 41
8 5 6 8 15 18 16 25 35 14 6 7 9 7 6 6 4 4 15 13 23 19 16 13 16 17 14 18 25 32 39 44 44 46 41 43 29 26 31 37 44 52 59 64 64 60 58 51 45 45 54 47 28 40
8 10 8 21 18 29 21 10 7 5 4 15 17 5 9 11 7 12 18 20 19 18 16 13 12 17 23 31 37 41 43 40 37 34 33 27 21 29 35 41 44 50 53 55 55 51 46 43 41 41 42 42 41 42
9 25 37 27 19 12 9 7 8 8 21 13 8 5 6 10 22 20 16 15 16 20 22 25 30 33 34 37 36 30 23 23 27 31 33 33 33 37 38 43 49 55 59 60 54 43 38 35 27 35 33 27 30 38
19 12 10 8 8 7 12 19 34 31 27 23 22 22 19 13 7 14 19 22 27 28 25 28 33 36 33 25 19 20 21 23 25 29 34 38 41 42 44 49 54 58 59 56 52 42 34 37 36 19 23 37 43 47
21 24 14 16 13 19 32 31 25 22 19 14 11 9 3 6 15 15 10 13 14 18 20 17 13 11 14 16 20 21 24 31 32 34 38 39 39 43 48 53 57 57 54 49 44 34 31 40 40 38 39 43 43 43
15 12 15 9 10 20 20 11 10 10 10 10 8 5 5 5 7 11 19 17 16 14 12 13 14 16 18 22 22 21 21 27 33 37 37 38 41 46 52 55 54 52 48 41 35 28 33 38 41 41 40 38 37 37
35 37 30 18 10 9 9 10 7 7 6 4 3 2 2 3 6 8 11 15 18 23 23 19 19 21 20 18 18 23 26 31 35 37 39 43 48 52 53 53 51 46 40 34 30 33 35 36 36 34 33 33 34 34
Wind_Direction_500mb
186 187 186 186 185 184 183 178 175 174 177 174 174 174 174 162 157 159 152 154 146 107 60 74 114 113 143 138 134 155 92 29 63 85 140 223 127 202 129 171 171 163 138 185 143 110 264 305 134 129 114 59 43 39
180 182 184 180 191 184 178 177 174 173 175 173 174 174 175 168 166 165 149 144 136 108 104 91 93 110 142 153 136 157 98 140 161 100 233 99 38 60 150 195 160 176 171 174 166 209 209 106 106 87 77 67 44 32
183 183 184 187 181 178 175 171 167 172 173 174 174 173 174 165 159 165 156 145 145 112 89 107 86 102 123 138 173 147 159 159 171 142 128 169 131 123 142 246 147 206 187 131 99 251 89 88 80 71 67 60 37 23
180 183 185 182 174 171 171 169 167 169 168 169 169 169 174 175 168 172 164 148 148 116 94 48 92 100 122 151 173 145 148 162 153 141 82 122 123 60 119 172 113 119 159 178 180 149 92 68 64 74 57 32 26 5
180 180 177 171 169 169 168 169 165 165 166 166 165 167 172 173 172 173 168 157 155 134 125 113 92 86 96 129 145 149 172 158 140 92 80 202 89 73 52 63 346 35 330 144 151 84 96 71 64 62 43 31 3 356
174 178 172 167 162 163 167 163 163 164 161 160 158 157 161 164 169 160 136 164 149 122 98 82 89 80 115 128 125 127 138 134 103 98 73 79 80 107 89 172 106 94 80 112 104 97 77 87 62 28 32 354 348 347
173 167 163 159 156 151 155 158 157 157 153 152 152 153 155 160 161 161 139 153 148 131 94 98 84 130 117 126 108 109 118 95 102 84 76 116 97 101 82 116 112 97 90 90 86 112 105 12 0 35 356 342 338 339
166 159 156 154 150 154 154 152 151 148 146 148 147 145 151 152 148 121 143 152 141 98 86 105 113 152 149 119 87 94 97 78 62 69 78 99 125 99 90 135 115 102 100 84 60 53 67 48 13 343 330 336 345 340
155 155 155 147 151 152 151 149 146 146 144 143 142 141 138 135 133 146 152 150 132 126 128 139 148 175 164 119 107 103 102 72 57 48 270 111 97 181 232 133 109 103 98 97 87 78 56 359 343 337 331 329 326 326
154 154 146 151 151 149 148 146 143 141 140 139 134 120 97 149 130 127 136 166 149 111 120 107 123 150 148 134 106 122 141 151 125 232 105 83 222 107 110 109 113 105 100 93 69 33 8 349 333 322 319 310 309 316
142 146 149 149 148 146 145 142 141 140 140 136 113 108 136 132 141 135 138 142 132 110 135 118 146 136 151 132 149 176 175 173 118 212 127 193 132 101 115 112 110 105 93 61 33 8 347 336 335 333 328 316 307 313
146 147 147 146 145 144 143 142 144 142 146 141 134 131 131 145 133 119 170 155 170 168 134 136 140 128 114 124 108 164 102 77 154 154 88 154 125 131 124 115 103 100 97 56 0 331 315 310 319 321 320 322 322 320
145 144 144 144 144 142 141 140 139 138 131 121 113 125 157 139 88 156 171 198 115 160 144 141 120 118 101 93 96 89 92 198 122 66 171 70 132 130 125 122 105 58 337 321 322 325 329 323 314 317 321 320 319 320
142 142 142 141 139 138 138 135 135 133 136 105 121 113 143 195 214 246 154 122 123 133 133 130 103 112 125 123 136 107 178 106 110 123 94 122 122 113 107 84 3 348 342 337 329 325 324 323 324 324 320 318 318 317
140 139 138 139 135 139 136 140 143 146 82 77 67 92 68 100 96 99 114 115 128 133 125 108 83 87 66 82 125 91 86 170 162 87 107 123 114 101 65 41 355 338 327 325 326 330 331 330 332 331 329 325 321 321
139 139 140 137 139 141 144 137 133 101 70 67 52 80 111 90 83 95 105 113 134 132 117 104 115 106 130 130 96 186 158 121 109 111 130 126 105 102 86 350 338 323 324 326 323 331 328 324 323 322 322 324 327 323
139 140 145 141 136 137 131 122 79 60 69 62 66 101 111 102 93 104 120 128 141 127 110 104 93 148 125 112 86 30 128 136 129 133 126 123 120 92 26 353 344 343 334 323 321 322 321 320 318 319 319 319 322 319
137 144 146 149 149 129 100 70 75 65 59 78 77 92 99 106 104 103 106 120 123 83 63 93 115 100 150 108 127 120 119 124 126 127 131 131 129 13 355 344 337 328 324 323 322 320 319 321 320 319 319 317 316 318
144 145 147 144 147 115 70 54 58 79 63 88 104 103 98 92 97 99 96 99 112 106 80 55 57 70 87 103 127 135 138 139 134 135 136 123 327 318 322 333 329 326 327 322 322 324 323 322 321 321 320 319 315 312
139 147 150 143 146 92 78 67 74 85 74 110 104 93 90 94 104 97 95 96 97 68 62 44 55 109 116 132 138 136 136 136 136 145 148 284 305 311 319 323 323 322 320 322 323 327 327 326 327 327 325 322 320 316
136 139 149 146 86 70 84 83 74 102 94 101 111 101 103 107 102 96 87 97 66 59 82 125 120 124 132 130 129 135 134 137 140 174 258 287 313 316 314 314 315 319 321 318 321 323 323 321 323 323 321 323 322 320
125 139 130 107 68 68 61 58 108 106 85 129 113 92 94 110 111 90 99 54 64 75 127 140 143 144 139 140 141 151 164 194 240 271 289 300 303 311 313 311 313 315 317 318 317 319 320 322 324 326 327 326 325 320
132 124 78 53 74 68 72 89 76 85 117 137 117 98 115 132 133 128 81 87 109 123 138 139 137 135 140 147 160 153 268 294 303 306 302 297 303 307 314 311 309 316 313 315 319 321 320 321 327 330 330 329 326 321
114 70 57 62 74 97 108 93 101 106 130 135 128 109 105 109 146 97 138 116 157 161 153 160 169 171 172 192 240 276 298 306 304 301 303 305 307 316 313 307 312 317 319 321 320 317 320 321 326 329 332 332 328 314
84 50 82 75 111 123 115 94 93 97 98 86 72 74 119 134 112 157 176 143 165 170 173 184 191 187 205 237 245 271 294 304 304 305 304 311 315 312 309 314 315 324 323 317 317 319 318 319 324 327 331 335 322 338
80 67 84 135 150 114 135 114 140 138 96 72 88 123 160 132 89 190 172 167 176 182 181 189 197 209 232 241 263 275 288 295 301 304 309 312 312 313 314 315 317 316 316 318 318 319 318 320 321 324 327 327 321 321
90 73 75 99 121 115 100 109 111 94 104 131 152 139 108 105 173 109 147 165 177 183 180 203 231 244 245 258 269 281 292 297 301 306 309 311 315 314 306 306 309 313 315 315 316 318 320 318 314 321 319 324 304 309
98 104 107 116 95 108 84 93 95 120 99 134 140 103 135 162 201 139 160 167 165 182 195 204 214 231 251 272 283 289 291 294 298 305 309 312 305 298 299 304 308 312 316 318 320 322 326 323 315 312 314 314 308 310
93 131 118 93 100 72 62 74 79 85 130 120 110 100 101 101 131 139 157 192 221 236 246 257 269 274 282 289 296 294 293 298 301 306 314 321 320 313 319 319 321 324 324 324 324 325 329 334 331 329 324 322 323 323
129 119 99 85 80 69 48 112 101 104 112 99 100 108 104 114 168 225 244 261 275 278 272 271 276 283 287 288 294 299 301 298 306 314 316 317 316 317 318 321 324 324 325 324 323 323 321 314 318 324 307 307 311 316
111 102 83 83 80 97 107 114 109 105 105 89 90 94 119 294 305 299 298 300 290 295 282 273 264 260 272 283 290 289 285 299 307 309 312 313 312 314 318 321 322 323 324 324 323 321 316 309 313 312 310 311 315 318
84 104 111 94 98 109 98 89 86 82 75 77 72 42 347 294 280 275 282 277 281 284 260 256 260 270 289 294 297 300 303 307 310 313 312 311 313 316 317 320 322 322 323 324 322 313 304 307 311 313 315 319 321 324
87 95 98 95 112 107 94 99 77 84 73 59 69 317 313 257 242 261 276 276 277 283 284 269 272 289 296 298 307 316 319 318 316 312 312 313 316 319 319 320 321 321 321 319 314 311 317 320 319 321 323 324 327 329
Wind_Speed_850mb
140 146 151 153 126 126 115 113 118 113 104 102 101 100 109 60 48 47 36 25 23 18 32 26 27 29 39 40 11 29 17 4 7 6 6 7 5 11 8 13 12 12 11 6 4 4 12 1 12 5 7 34 33 34
150 151 153 126 128 128 112 115 117 112 98 97 98 99 105 66 56 43 34 26 22 24 29 42 46 38 30 21 38 39 5 14 16 6 3 5 3 4 9 6 9 7 12 10 13 10 13 6 44 32 29 31 33 31
149 148 143 144 128 116 116 118 114 101 97 97 97 97 102 71 57 42 40 30 33 49 31 31 39 36 27 26 19 21 13 14 15 7 9 5 4 6 5 6 9 7 36 7 10 6 8 43 34 30 22 23 24 21
153 150 144 131 118 106 117 114 105 96 93 93 92 92 99 82 57 35 39 33 26 26 14 22 18 28 30 33 28 24 29 22 29 21 10 4 5 4 1 2 6 2 17 12 7 9 43 37 29 19 18 16 16 18
149 139 132 119 113 106 118 115 101 91 92 92 88 84 81 68 56 43 39 32 34 7 14 18 28 30 21 19 20 20 26 30 23 9 6 2 6 7 5 6 4 4 4 6 5 16 28 22 19 16 15 15 13 20
150 131 130 119 118 111 104 120 98 90 89 86 84 82 72 61 52 47 24 24 21 32 18 5 18 17 22 30 32 31 26 25 12 8 6 8 6 7 5 3 22 37 34 22 14 20 21 13 8 14 15 18 21 20
138 131 127 125 118 107 104 101 95 94 92 89 87 77 68 61 56 22 17 36 32 19 16 12 7 14 20 34 34 31 23 15 9 6 5 9 5 7 4 3 26 31 27 25 21 17 11 9 9 11 17 20 25 23
136 135 128 123 115 105 101 98 97 96 95 94 85 73 62 53 39 26 34 51 34 22 16 10 5 10 18 9 9 7 9 10 9 5 3 9 9 5 1 7 32 25 25 26 17 17 13 10 11 14 18 22 26 28
132 126 121 120 108 104 102 102 100 99 99 93 81 67 59 47 29 36 51 37 23 12 16 11 11 7 22 13 11 7 6 6 5 3 1 6 3 2 8 24 30 19 17 18 16 13 9 12 17 20 26 30 33 34
123 120 122 113 110 108 106 106 107 107 101 92 82 31 17 32 53 42 26 13 8 7 7 10 16 6 24 15 7 9 5 6 3 7 8 5 1 21 31 29 29 23 19 12 12 11 12 17 21 26 28 31 32 35
129 123 118 114 112 111 112 113 111 109 98 72 19 13 64 61 36 7 9 6 7 5 8 11 28 28 24 9 7 11 9 8 5 7 8 4 4 21 26 31 24 18 13 9 8 10 14 19 24 30 36 33 33 35
121 117 116 114 114 115 116 117 112 91 55 40 42 74 51 15 7 8 5 6 6 10 11 23 42 28 17 12 9 8 5 3 5 22 6 4 8 25 26 25 18 11 6 4 7 13 22 31 35 35 37 46 54 60
120 119 117 117 115 112 108 103 68 57 65 92 43 12 11 7 6 11 12 5 7 19 30 46 26 12 11 10 9 6 6 6 29 5 6 4 29 29 26 21 13 6 6 14 24 30 30 31 39 49 55 54 58 65
118 116 115 114 113 117 91 65 73 77 50 11 12 9 6 5 6 5 9 10 20 45 59 47 19 9 9 7 8 8 7 8 3 5 4 13 32 29 20 11 9 15 21 20 26 36 39 44 49 52 58 66 70 70
118 116 116 118 109 82 87 86 65 58 15 12 9 6 6 20 31 39 49 47 55 63 52 36 19 12 8 6 3 7 5 5 4 4 6 31 25 16 13 11 10 16 23 32 38 41 46 49 54 60 59 58 59 60
119 120 121 101 81 94 76 55 45 30 13 11 13 15 30 35 33 46 51 52 54 57 25 12 8 7 4 7 5 7 9 4 6 14 38 24 19 15 6 8 15 22 32 33 38 46 48 54 57 58 60 63 61 60
118 114 103 88 89 71 45 44 22 18 11 10 10 24 39 38 29 40 44 37 45 23 6 10 7 5 13 4 5 6 5 10 47 37 29 21 13 6 6 14 25 30 34 39 44 49 56 54 55 64 66 63 63 55
119 110 86 83 83 49 45 30 18 17 17 19 20 39 40 47 46 39 29 25 22 9 9 4 9 5 6 7 6 16 42 39 34 27 20 13 5 4 17 24 30 34 41 46 48 50 55 58 59 64 64 65 63 62
113 96 73 66 59 31 17 19 16 13 22 27 39 45 45 42 37 34 31 27 25 24 11 7 7 5 4 15 49 43 39 34 27 18 12 4 3 11 17 30 35 40 42 47 57 53 55 56 60 62 61 61 64 66
84 78 69 51 40 26 15 13 16 16 9 21 39 31 26 26 32 32 27 23 21 11 10 8 8 25 45 44 44 40 32 23 20 16 7 2 9 21 30 35 39 43 51 54 57 56 60 64 65 62 63 64 66 66
77 61 52 38 43 29 16 11 14 17 18 16 40 37 25 27 26 27 23 13 11 6 9 20 45 42 38 39 32 25 21 17 10 5 7 17 24 29 35 41 46 51 53 57 59 60 60 60 61 62 67 69 71 61
65 58 55 39 21 16 18 18 21 20 13 28 26 18 13 15 14 8 11 10 8 15 20 35 33 33 33 29 24 19 14 9 8 13 17 22 29 37 41 47 50 53 55 55 51 58 59 61 62 71 73 71 63 53
61 55 34 20 16 13 8 15 9 9 11 17 24 9 8 8 8 10 6 6 14 22 26 28 26 19 21 16 9 2 3 11 15 17 22 30 38 44 48 49 50 57 55 53 56 55 57 62 69 74 69 63 57 52
33 16 13 10 12 9 8 5 9 11 19 12 7 8 7 7 14 3 4 7 22 28 26 24 22 20 13 7 6 6 8 14 23 29 31 33 41 50 48 48 56 53 50 50 49 52 61 66 72 71 62 63 62 66
17 10 11 10 9 9 7 6 6 6 5 11 7 5 5 9 4 3 4 13 23 22 25 23 18 15 12 9 8 12 17 19 20 27 38 49 54 54 53 57 51 46 43 47 53 61 69 74 73 61 55 52 34 50
11 6 5 7 12 9 7 7 7 7 7 6 5 12 10 6 5 5 8 18 20 25 27 23 20 18 17 16 17 19 23 30 40 48 49 51 48 50 43 38 44 48 49 55 65 71 71 63 52 50 52 50 46 41
8 5 6 8 15 18 16 25 35 14 6 7 9 7 6 6 4 4 15 13 23 19 16 13 16 17 14 18 25 32 39 44 44 46 41 43 29 26 31 37 44 52 59 64 64 60 58 51 45 45 54 47 28 40
8 10 8 21 18 29 21 10 7 5 4 15 17 5 9 11 7 12 18 20 19 18 16 13 12 17 23 31 37 41 43 40 37 34 33 27 21 29 35 41 44 50 53 55 55 51 46 43 41 41 42 42 41 42
9 25 37 27 19 12 9 7 8 8 21 13 8 5 6 10 22 20 16 15 16 20 22 25 30 33 34 37 36 30 23 23 27 31 33 33 33 37 38 43 49 55 59 60 54 43 38 35 27 35 33 27 30 38
19 12 10 8 8 7 12 19 34 31 27 23 22 22 19 13 7 14 19 22 27 28 25 28 33 36 33 25 19 20 21 23 25 29 34 38 41 42 44 49 54 58 59 56 52 42 34 37 36 19 23 37 43 47
21 24 14 16 13 19 32 31 25 22 19 14 11 9 3 6 15 15 10 13 14 18 20 17 13 11 14 16 20 21 24 31 32 34 38 39 39 43 48 53 57 57 54 49 44 34 31 40 40 38 39 43 43 43
15 12 15 9 10 20 20 11 10 10 10 10 8 5 5 5 7 11 19 17 16 14 12 13 14 16 18 22 22 21 21 27 33 37 37 38 41 46 52 55 54 52 48 41 35 28 33 38 41 41 40 38 37 37
35 37 30 18 10 9 9 10 7 7 6 4 3 2 2 3 6 8 11 15 18 23 23 19 19 21 20 18 18 23 26 31 35 37 39 43 48 52 53 53 51 46 40 34 30 33 35 36 36 34 33 33 34 34
Wind_Direction_850mb
186 187 186 186 185 184 183 178 175 174 177 174 174 174 174 162 157 159 152 154 146 107 60 74 114 113 143 138 134 155 92 29 63 85 140 223 127 202 129 171 171 163 138 185 143 110 264 305 134 129 114 59 43 39
180 182 184 180 191 184 178 177 174 173 175 173 174 174 175 168 166 165 149 144 136 108 104 91 93 110 142 153 136 157 98 140 161 100 233 99 38 60 150 195 160 176 171 174 166 209 209 106 106 87 77 67 44 32
183 183 184 187 181 178 175 171 167 172 173 174 174 173 174 165 159 165 156 145 145 112 89 107 86 102 123 138 173 147 159 159 171 142 128 169 131 123 142 246 147 206 187 131 99 251 89 88 80 71 67 60 37 23
180 183 185 182 174 171 171 169 167 169 168 169 169 169 174 175 168 172 164 148 148 116 94 48 92 100 122 151 173 145 148 162 153 141 82 122 123 60 119 172 113 119 159 178 180 149 92 68 64 74 57 32 26 5
180 180 177 171 169 169 168 169 165 165 166 166 165 167 172 173 172 173 168 157 155 134 125 113 92 86 96 129 145 149 172 158 140 92 80 202 89 73 52 63 346 35 330 144 151 84 96 71 64 62 43 31 3 356
174 178 172 167 162 163 167 163 163 164 161 160 158 157 161 164 169 160 136 164 149 122 98 82 89 80 115 128 125 127 138 134 103 98 73 79 80 107 89 172 106 94 80 112 104 97 77 87 62 28 32 354 348 347
173 167 163 159 156 151 155 158 157 157 153 152 152 153 155 160 161 161 139 153 148 131 94 98 84 130 117 126 108 109 118 95 102 84 76 116 97 101 82 116 112 97 90 90 86 112 105 12 0 35 356 342 338 339
166 159 156 154 150 154 154 152 151 148 146 148 147 145 151 152 148 121 143 152 141 98 86 105 113 152 149 119 87 94 97 78 62 69 78 99 125 99 90 135 115 102 100 84 60 53 67 48 13 343 330 336 345 340
155 155 155 147 151 152 151 149 146 146 144 143 142 141 138 135 133 146 152 150 132 126 128 139 148 175 164 119 107 103 102 72 57 48 270 111 97 181 232 133 109 103 98 97 87 78 56 359 343 337 331 329 326 326
154 154 146 151 151 149 148 146 143 141 140 139 134 120 97 149 130 127 136 166 149 111 120 107 123 150 148 134 106 122 141 151 125 232 105 83 222 107 110 109 113 105 100 93 69 33 8 349 333 322 319 310 309 316
142 146 149 149 148 146 145 142 141 140 140 136 113 108 136 132 141 135 138 142 132 110 135 118 146 136 151 132 149 176 175 173 118 212 127 193 132 101 115 112 110 105 93 61 33 8 347 336 335 333 328 316 307 313
146 147 147 146 145 144 143 142 144 142 146 141 134 131 131 145 133 119 170 155 170 168 134 136 140 128 114 124 108 164 102 77 154 154 88 154 125 131 124 115 103 100 97 56 0 331 315 310 319 321 320 322 322 320
145 144 144 144 144 142 141 140 139 138 131 121 113 125 157 139 88 156 171 198 115 160 144 141 120 118 101 93 96 89 92 198 122 66 171 70 132 130 125 122 105 58 337 321 322 325 329 323 314 317 321 320 319 320
142 142 142 141 139 138 138 135 135 133 136 105 121 113 143 195 214 246 154 122 123 133 133 130 103 112 125 123 136 107 178 106 110 123 94 122 122 113 107 84 3 348 342 337 329 325 324 323 324 324 320 318 318 317
140 139 138 139 135 139 136 140 143 146 82 77 67 92 68 100 96 99 114 115 128 133 125 108 83 87 66 82 125 91 86 170 162 87 107 123 114 101 65 41 355 338 327 325 326 330 331 330 332 331 329 325 321 321
139 139 140 137 139 141 144 137 133 101 70 67 52 80 111 90 83 95 105 113 134 132 117 104 115 106 130 130 96 186 158 121 109 111 130 126 105 102 86 350 338 323 324 326 323 331 328 324 323 322 322 324 327 323
139 140 145 141 136 137 131 122 79 60 69 62 66 101 111 102 93 104 120 128 141 127 110 104 93 148 125 112 86 30 128 136 129 133 126 123 120 92 26 353 344 343 334 323 321 322 321 320 318 319 319 319 322 319
137 144 146 149 149 129 100 70 75 65 59 78 77 92 99 106 104 103 106 120 123 83 63 93 115 100 150 108 127 120 119 124 126 127 131 131 129 13 355 344 337 328 324 323 322 320 319 321 320 319 319 317 316 318
144 145 147 144 147 115 70 54 58 79 63 88 104 103 98 92 97 99 96 99 112 106 80 55 57 70 87 103 127 135 138 139 134 135 136 123 327 318 322 333 329 326 327 322 322 324 323 322 321 321 320 319 315 312
139 147 150 143 146 92 78 67 74 85 74 110 104 93 90 94 104 97 95 96 97 68 62 44 55 109 116 132 138 136 136 136 136 145 148 284 305 311 319 323 323 322 320 322 323 327 327 326 327 327 325 322 320 316
136 139 149 146 86 70 84 83 74 102 94 101 111 101 103 107 102 96 87 97 66 59 82 125 120 124 132 130 129 135 134 137 140 174 258 287 313 316 314 314 315 319 321 318 321 323 323 321 323 323 321 323 322 320
125 139 130 107 68 68 61 58 108 106 85 129 113 92 94 110 111 90 99 54 64 75 127 140 143 144 139 140 141 151 164 194 240 271 289 300 303 311 313 311 313 315 317 318 317 319 320 322 324 326 327 326 325 320
132 124 78 53 74 68 72 89 76 85 117 137 117 98 115 132 133 128 81 87 109 123 138 139 137 135 140 147 160 153 268 294 303 306 302 297 303 307 314 311 309 316 313 315 319 321 320 321 327 330 330 329 326 321
114 70 57 62 74 97 108 93 101 106 130 135 128 109 105 109 146 97 138 116 157 161 153 160 169 171 172 192 240 276 298 306 304 301 303 305 307 316 313 307 312 317 319 321 320 317 320 321 326 329 332 332 328 314
84 50 82 75 111 123 115 94 93 97 98 86 72 74 119 134 112 157 176 143 165 170 173 184 191 187 205 237 245 271 294 304 304 305 304 311 315 312 309 314 315 324 323 317 317 319 318 319 324 327 331 335 322 338
80 67 84 135 150 114 135 114 140 138 96 72 88 123 160 132 89 190 172 167 176 182 181 189 197 209 232 241 263 275 288 295 301 304 309 312 312 313 314 315 317 316 316 318 318 319 318 320 321 324 327 327 321 321
90 73 75 99 121 115 100 109 111 94 104 131 152 139 108 105 173 109 147 165 177 183 180 203 231 244 245 258 269 281 292 297 301 306 309 311 315 314 306 306 309 313 315 315 316 318 320 318 314 321 319 324 304 309
98 104 107 116 95 108 84 93 95 120 99 134 140 103 135 162 201 139 160 167 165 182 195 204 214 231 251 272 283 289 291 294 298 305 309 312 305 298 299 304 308 312 316 318 320 322 326 323 315 312 314 314 308 310
93 131 118 93 100 72 62 74 79 85 130 120 110 100 101 101 131 139 157 192 221 236 246 257 269 274 282 289 296 294 293 298 301 306 314 321 320 313 319 319 321 324 324 324 324 325 329 334 331 329 324 322 323 323
129 119 99 85 80 69 48 112 101 104 112 99 100 108 104 114 168 225 244 261 275 278 272 271 276 283 287 288 294 299 301 298 306 314 316 317 316 317 318 321 324 324 325 324 323 323 321 314 318 324 307 307 311 316
111 102 83 83 80 97 107 114 109 105 105 89 90 94 119 294 305 299 298 300 290 295 282 273 264 260 272 283 290 289 285 299 307 309 312 313 312 314 318 321 322 323 324 324 323 321 316 309 313 312 310 311 315 318
84 104 111 94 98 109 98 89 86 82 75 77 72 42 347 294 280 275 282 277 281 284 260 256 260 270 289 294 297 300 303 307 310 313 312 311 313 316 317 320 322 322 323 324 322 313 304 307 311 313 315 319 321 324
87 95 98 95 112 107 94 99 77 84 73 59 69 317 313 257 242 261 276 276 277 283 284 269 272 289 296 298 307 316 319 318 316 312 312 313 316 319 319 320 321 321 321 319 314 311 317 320 319 321 323 324 327 329